Topeka, KS

12:12 AM CST on December 06, 2019 (GMT -0600)
Billard Municipal

Weather History for KTOP - November, 2019

Change the Weather History Date:

Sunday, November 17, 2019

  Actual Average Record
Temperature  
Mean Temperature 44 °F 43 °F  
Max Temperature 57 °F 54 °F 77 °F (2016)
Min Temperature 30 °F 32 °F 5 °F (1959)
Degree Days  
Heating Degree Days 21 22  
Month to date heating degree days 414 305  
Since 1 July heating degree days 825 661  
Cooling Degree Days 0 0  
Month to date cooling degree days 0 0  
Year to date cooling degree days 1609 1420  
Moisture  
Dew Point 32 °F    
Average Humidity 61    
Maximum Humidity 82    
Minimum Humidity 39    
Precipitation  
Precipitation T in 0.06 in 2.08 in (1958)
Month to date precipitation 0.02 1.16  
Year to date precipitation 45.32 34.42  
Snow  
Snow 0.00 in 0.00 in T in (2015)
Month to date snowfall 0.3 0.3  
Year to date snowfall 20.3 11.9  
Since 1 July snowfall 1.8 0.6  
Snow Depth 0.00 in    
Sea Level Pressure  
Sea Level Pressure 29.99 in    
Wind  
Wind Speed 7 mph (WNW)    
Max Wind Speed 18 mph    
Max Gust Speed 29 mph    
Visibility 10 miles    
Events      
T = Trace of Precipitation, MM = Missing Value Source: NWS Daily Summary

Daily Weather History Graph

Daily Weather History Graph

Search for Another Location

Airport or City:

Astronomy

Nov. 17, 2019 Rise Set
Actual Time 7:07 AM CST 5:06 PM CST
Civil Twilight 6:38 AM CST 5:35 PM CST
Nautical Twilight 6:06 AM CST 6:07 PM CST
Astronomical Twilight 5:34 AM CST 6:39 PM CST
Moon 9:45 PM CST (11/17) 11:53 AM CST (11/17)
Length of Visible Light 10h 56m
Length of Day
9h 59m
Waning Gibbous, 73% of the Moon is Illuminated
Nov 17
Waning Gibbous
Nov 19
Last Quarter
Nov 26
New
Dec 4
First Quarter
Dec 11
Full

Hourly Weather History & Observations

Time (CST) Temp. Windchill Dew Point Humidity Pressure Visibility Wind Dir Wind Speed Gust Speed Precip Events Conditions
12:53 AM 46.0 °F 43.9 °F 30.0 °F 54% 30.00 in 10.0 mi SE 4.6 mph - N/A   Clear
1:53 AM 48.9 °F - 30.0 °F 48% 29.99 in 10.0 mi SSW 4.6 mph - N/A   Clear
2:53 AM 48.9 °F - 30.9 °F 50% 29.99 in 10.0 mi SW 5.8 mph - N/A   Clear
3:53 AM 48.9 °F - 30.9 °F 50% 29.99 in 10.0 mi SW 5.8 mph - N/A   Clear
4:53 AM 48.9 °F - 30.9 °F 50% 29.98 in 10.0 mi WSW 5.8 mph - N/A   Overcast
5:53 AM 46.9 °F - 33.1 °F 59% 29.99 in 10.0 mi WNW 6.9 mph - N/A   Scattered Clouds
6:53 AM 46.0 °F 43.1 °F 35.1 °F 66% 30.01 in 10.0 mi West 5.8 mph - N/A   Overcast
7:53 AM 46.9 °F - 37.9 °F 71% 30.02 in 10.0 mi WNW 6.9 mph - N/A   Overcast
9:53 AM 48.9 °F - 37.0 °F 64% 30.04 in 10.0 mi NNW 15.0 mph - N/A   Partly Cloudy
10:53 AM 54.0 °F - 37.0 °F 53% 30.03 in 10.0 mi NNW 15.0 mph 23.0 mph N/A   Scattered Clouds
11:53 AM 54.0 °F - 35.1 °F 49% 30.02 in 10.0 mi NNW 15.0 mph - N/A   Overcast
12:53 PM 54.0 °F - 34.0 °F 47% 29.99 in 10.0 mi NNW 13.8 mph - N/A   Mostly Cloudy
1:53 PM 55.0 °F - 33.1 °F 43% 29.98 in 10.0 mi NW 15.0 mph 21.9 mph N/A   Scattered Clouds
2:53 PM 57.0 °F - 32.0 °F 39% 29.97 in 10.0 mi NW 12.7 mph 21.9 mph N/A   Partly Cloudy
3:53 PM 55.0 °F - 32.0 °F 42% 29.97 in 10.0 mi NW 16.1 mph - N/A   Clear
5:53 PM 46.9 °F - 30.9 °F 54% 29.98 in 10.0 mi Calm Calm - N/A   Clear
6:53 PM 39.9 °F - 30.0 °F 68% 29.99 in 10.0 mi Calm Calm - N/A   Clear
7:53 PM 39.0 °F - 33.1 °F 79% 29.97 in 10.0 mi Calm Calm - N/A   Clear
8:53 PM 35.1 °F 32.2 °F 28.9 °F 78% 29.97 in 10.0 mi NW 3.5 mph - N/A   Clear
9:53 PM 36.0 °F - 30.0 °F 79% 29.96 in 10.0 mi Calm Calm - N/A   Clear
10:53 PM 36.0 °F - 30.0 °F 79% 29.94 in 10.0 mi Calm Calm - N/A   Clear
11:53 PM 30.0 °F - 26.1 °F 85% 29.94 in 10.0 mi Calm Calm - N/A   Clear